User: anonymous   Login
Location: Unspecified
(0.0000°N, 0.0000°E)
Time: 12:46:28
(UTC+00:00)
Language:

GONETS M03 - Orbit

View from above orbital plane
View from above orbital plane
View from above satellite
View from above satellite

Ground track
Ground track

The orbit data is extracted from the following two-line orbital elements,

1 38734U 12041B   17263.04803943  .00000024  00000-0  10000-3 0  9993
2 38734  82.4716 263.9042 0014967 201.6949 158.3503 12.44791938233561
Epoch (UTC): 20 September 2017 01:09:10
Eccentricity: 0.0014967
inclination: 82.4716°
perigee height: 1474 km
apogee height: 1498 km
right ascension of ascending node: 263.9042°
argument of perigee: 201.6949°
revolutions per day: 12.44791938
mean anomaly at epoch: 158.3503°
orbit number at epoch: 23356

The dashed part of the orbit path shows where the satellite is in the earth's shadow,  

DLR